EHI
0 0 0 0 0 0 0 0 0 0 0 0 0 0 0 0 0 0 0 0 0 0 0 0 0 0 0 0 0 0 0 0 0 0 0 0 0 0
0 0 0 0 0 0 0 0 0 0 0 0 0 0 0 0 0 0 0 0 0 0 0 0 0 0 0 0 0 0 0 0 0 0 0 0 0 0
0 0 0 0 0 0 0 0 0 0 0 0 0 0 0 0 0 0 0 0 0 0 0 0 0 0 0 0 0 0 0 0 0 0 0 0 0 0
0 0 0 0 0 0 0 0 0 0 0 0 0 0 0 0 0 0 0 0 0 0 0 0 0 0 0 0 0 0 0 0 0 0 0 0 0 0
0 0 0 0 0 0 0 0 0 0 0 0 0 0 0 0 0 0 0 0 0 0 0 0 0 0 0 0 0 0 0 0 0 0 0 0 0 0
0 0 0 0 0 0 0 0 0 0 0 0 0 0 0 0 0 0 0 0 0 0 0 0 0 0 0 0 0 0 0 0 0 0 0 0 0 0
0 0 0 0 0 0 0 0 0 0 0 0 0 0 0 0 0 0 0 0 0 0 0 0 0 0 0 0 0 0 0 0 0 0 0 0 0 0
0 0 0 0 0 0 0 0 0 0 0 0 0 0 0 0 0 0 0 0 0 0 0 0 0 0 0 0 0 0 0 0 0 0 0 0 0 0
0 0 0 0 0 0 0 0 0 0 0 0 0 0 0 0 0 0 0 0 0 0 0 0 0 0 0 0 0 0 0 0 0 0 0 0 0 0
0 0 0 0 0 0 0 0 0 0 0 0 0 0 0 0 0 0 0 0 0 0 0 0 0 0 0 0 0 0 0 0 0 0 0 0 0 0
0 0 0 0 0 0 0 0 0 0 0 0 0 0 0 0 0 0 0 0 0 0 0 0 0 0 0 0 0 0 0 0 0 0 0 0 0 0
0 0 0 0 0 0 0 0 0 0 0 0 0 0 0 0 0 0 0 0 0 0 0 0 0 0 0 0 0 0 0 0 0 0 0 0 0 0
0 0 0 0 0 0 0 0 0 0 0 0 0 0 0 0 0 0 0 0 0 0 0 0 0 0 0 0 0 0 0 0 0 0 0 0 0 0
0 0 0 0 0 0 0 0 0 0 0 0 0 0 0 0 0 0 0 0 0 0 0 0 0 0 0 0 0 0 0 0 0 0 0 0 0 0
0 0 0 0 0 0 0 0 0 0 0 0 0 0 0 0 0 0 0 0 0 0 0 0 0 0 0 0 0 0 0 0 0 0 0 0 0 0
0 0 0 0 0 0 0 0 0 0 0 0 0 0 0 0 0 0 0 0 0 0 0 0 0 0 0 0 0 0 0 0 0 0 0 0 0 0
0 0 0 0 0 0 0 0 0 0 0 0 0 0 0 0 0 0 0 0 0 0 0 0 0 0 0 0 0 0 0 0 0 0 0 0 0 0
0 0 0 0 0 0 0 0 0 0 0 0 0 0 0 0 0 0 0 0 0 0 0 0 0 0 0 0 0 0 0 0 0 0 0 0 0 0
0 0 0 0 0 0 0 0 0 0 0 0 0 0 0 0 0 0 0 0 0 0 0 0 0 0 0 0 0 0 0 0 0 0 0 0 0 0
0 0 0 0 0 0 0 0 0 0 0 0 0 0 0 0 0 0 0 0 0 0 0 0 0 0 0 0 0 0 0 0 0 0 0 0 0 0
0 0 0 0 0 0 0 0 0 0 0 0 0 0 0 0 0 0 0 0 0 0 0 0 0 0 0 0 0 0 0 0 0 0 0 0 0 0
0 0 0 0 0 0 0 0 0 0 0 0 0 0 0 0 0 0 0 0 0 0 0 0 0 0 0 0 0 0 0 0 0 0 0 0 0 0
0 0 0 0 0 0 0 0 0 0 0 0 0 0 0 0 0 0 0 0 0 0 0 0 0 0 0 0 0 0 0 0 0 0 0 0 0 0
Wind_Speed
6 7 5 4 4 4 3 3 3 1 2 2 1 0 1 2 4 4 4 6 6 6 7 8 9 10 10 11 11 12 12 13 12 12 13 14 16 17
5 6 6 4 4 4 4 3 3 3 2 1 1 1 2 3 4 4 4 5 7 8 9 10 10 10 10 11 11 12 13 14 13 14 14 15 15 17
4 6 6 5 5 4 4 4 3 3 3 2 1 1 2 3 3 3 3 4 5 9 10 11 11 12 12 12 12 13 13 14 14 15 15 15 15 16
3 4 4 4 6 5 4 5 4 4 3 3 1 0 1 1 2 2 2 3 4 7 10 11 12 12 12 12 12 13 13 14 15 14 14 14 15 16
3 1 1 3 4 4 5 4 3 3 2 2 2 0 0 0 1 1 1 1 2 4 7 10 12 12 12 12 12 12 13 14 14 13 13 13 13 13
5 4 3 1 1 2 3 3 3 3 2 2 1 1 0 0 1 1 1 1 1 2 2 3 5 8 9 10 10 11 12 13 13 13 12 12 11 10
6 6 6 7 6 3 1 1 2 2 2 1 2 1 1 0 0 0 0 0 1 2 2 2 2 1 1 2 4 6 8 9 11 11 11 10 8 6
5 5 5 6 7 10 11 9 6 3 1 1 1 1 1 0 0 0 0 1 0 2 2 2 2 4 4 5 7 7 4 2 5 8 8 7 6 5
6 6 5 5 5 5 8 10 11 11 7 2 2 2 2 1 1 1 0 0 0 2 1 1 1 3 3 5 9 11 10 6 1 3 5 6 7 7
6 5 5 6 5 5 6 7 8 8 7 4 4 3 2 2 1 0 1 1 0 2 2 1 1 1 1 3 8 10 10 9 6 2 2 4 5 7
4 5 5 6 8 8 7 7 7 6 6 8 8 7 7 7 4 1 1 0 1 1 3 1 2 2 1 1 3 8 9 8 6 4 2 2 3 4
3 4 7 6 7 7 6 6 6 5 4 4 5 6 6 7 8 4 2 1 1 1 3 1 1 1 1 2 2 5 6 7 7 6 5 3 3 3
2 2 3 6 5 6 5 4 3 2 3 4 4 5 5 5 6 5 4 2 2 2 2 2 1 1 2 2 3 3 4 4 5 5 6 4 3 4
1 1 2 5 5 5 4 3 4 3 3 4 4 4 4 4 4 4 4 4 3 3 3 2 1 2 2 2 2 3 3 3 5 5 5 4 2 4
0 2 3 5 4 4 6 5 3 2 2 2 2 2 2 2 3 2 3 3 3 4 5 4 2 2 2 2 2 3 3 4 6 5 5 5 5 3
3 4 5 6 4 4 4 3 2 1 1 0 0 1 1 1 2 2 2 2 3 3 4 5 4 2 2 2 2 3 3 4 6 6 5 5 5 5
3 2 2 3 3 3 3 3 2 1 0 1 1 1 0 0 0 1 1 1 2 1 3 3 3 2 3 2 3 4 4 3 4 6 5 6 5 6
2 2 2 2 2 2 3 3 3 2 2 2 2 3 3 2 1 1 0 1 1 1 1 1 2 2 2 2 2 3 3 3 4 5 4 5 7 7
1 1 2 2 2 2 2 2 3 3 3 3 3 4 3 3 3 2 2 2 2 1 1 1 0 1 2 1 2 1 2 3 3 4 4 3 4 6
1 0 1 2 2 3 3 3 3 4 3 3 3 4 4 4 4 4 4 4 3 2 2 2 3 3 3 1 0 1 2 2 2 3 4 3 3 5
1 1 1 2 2 2 3 3 4 4 4 3 3 4 4 5 5 5 5 5 4 4 4 4 3 3 2 2 1 0 0 2 3 2 3 3 4 5
2 2 2 3 3 3 3 3 3 3 4 4 3 3 4 5 6 7 6 6 6 6 5 3 2 4 4 3 3 1 1 2 1 3 5 3 3 5
2 2 2 2 3 3 3 4 4 4 4 4 4 3 3 3 4 5 6 6 6 6 5 4 3 3 3 3 3 2 1 1 2 3 2 2 4 7
Wind_Direction
229 223 218 208 200 203 192 186 176 233 300 305 298 249 200 176 152 148 152 165 179 196 208 215 214 213 213 213 216 220 228 237 245 251 258 264 268 271
231 224 218 204 202 203 198 198 186 180 225 255 262 258 207 205 184 177 187 192 209 219 225 228 229 229 227 223 222 223 228 235 241 247 251 255 258 263
244 230 228 209 204 204 198 194 192 183 206 238 240 256 211 209 193 195 205 216 225 227 229 230 231 233 233 230 228 228 231 237 242 247 252 255 258 262
287 250 240 218 211 203 197 200 199 197 196 211 211 225 194 219 195 199 217 226 234 234 233 234 235 237 237 236 234 233 236 240 245 250 255 258 260 264
352 334 253 202 200 197 198 198 195 192 195 193 196 211 240 337 133 153 230 248 252 250 240 240 243 246 248 247 244 241 241 244 249 253 256 258 262 265
30 32 34 53 167 189 195 194 180 175 173 175 171 187 168 346 73 80 47 22 353 344 308 263 252 252 256 259 255 248 240 238 241 246 250 255 259 263
36 28 30 44 52 64 97 130 148 147 150 168 173 176 182 127 102 66 125 32 54 12 15 34 32 49 7 308 282 270 252 239 235 235 237 240 243 243
37 24 27 35 54 64 69 71 74 93 130 147 168 178 158 141 157 208 197 108 102 10 8 47 56 72 59 47 27 29 22 266 233 227 218 209 197 191
39 30 33 24 40 65 67 66 62 56 56 83 73 51 55 34 10 342 325 131 99 346 313 89 46 77 62 52 44 44 43 39 17 213 200 184 171 170
43 35 39 32 33 60 66 61 51 39 35 55 81 69 50 26 34 303 301 307 84 11 336 117 25 32 17 45 41 43 43 37 23 6 194 187 183 182
38 37 43 43 44 63 68 63 51 30 31 61 73 69 56 42 35 65 38 110 114 32 1 49 13 344 345 16 26 29 32 26 12 356 328 251 226 216
31 34 46 54 52 57 63 62 52 19 13 34 42 39 41 43 40 43 40 61 69 37 356 21 13 5 21 353 9 21 19 9 2 358 342 310 241 224
33 20 20 36 53 58 63 66 64 54 41 49 46 36 33 34 31 26 24 39 54 34 348 339 13 34 41 352 355 9 13 358 354 356 352 334 263 228
59 1 345 6 34 45 44 55 94 82 62 52 43 29 22 16 4 6 19 34 41 28 345 331 9 24 35 35 9 346 345 357 358 354 357 354 324 253
332 351 2 16 32 37 36 46 66 66 68 59 37 10 352 333 336 357 22 32 47 42 30 16 19 48 58 60 26 355 343 343 355 356 353 3 6 357
0 7 35 46 44 22 17 25 34 44 112 161 234 299 335 356 20 19 30 25 41 25 29 36 32 67 93 80 61 35 14 358 350 349 350 0 14 12
351 1 19 22 14 7 0 357 357 10 314 225 217 219 224 41 25 18 43 62 67 14 351 1 21 51 56 58 56 37 25 20 5 355 358 4 12 14
23 4 358 3 354 345 342 339 332 331 312 270 240 222 209 196 188 185 190 171 164 200 280 339 355 54 81 77 22 23 28 17 3 11 16 9 8 7
67 337 320 319 313 310 306 298 295 302 296 281 255 236 216 194 180 188 192 197 202 213 233 242 177 130 110 77 31 348 356 5 7 21 20 4 345 340
97 315 310 306 298 293 290 286 287 298 296 287 267 245 221 202 189 190 193 198 199 199 200 203 203 193 184 180 176 337 307 317 357 6 355 335 316 300
71 38 3 341 324 310 299 292 290 293 298 294 274 250 227 214 209 202 195 194 197 200 201 204 207 196 166 155 182 208 335 271 261 292 328 340 348 355
79 53 34 20 7 356 346 338 332 328 323 311 297 273 241 229 227 217 203 194 202 208 208 194 158 167 181 184 178 180 329 344 302 273 243 256 334 349
112 84 55 33 24 18 15 15 16 7 355 342 330 314 279 244 242 238 229 218 210 206 203 191 181 187 188 184 178 177 193 323 342 344 347 306 290 278